Overview Statistics Trail Chart Weather Telemetry Raw packets
 

This is the latest recevied weather packets stored in our database for station/object N7IGG. If no packets are shown the sender has not sent any weather packets the latest 10 day(s).

<< 27 28 29 30 31 32 33 >>
Time Temp. Humidity Pressure Rain* Wind** Luminosity Snow
1777996717 12.78° C 88% 1016 hPa 0 mm - 40 W/m² -
1777996413 12.78° C 88% 1016.3 hPa 0 mm - 39 W/m² -
1777996119 12.78° C 88% 1016.2 hPa 0 mm - 34 W/m² -
1777995806 12.78° C 88% 1016.2 hPa 0 mm - 35 W/m² -
1777995502 12.78° C 88% 1016.1 hPa 0 mm - 32 W/m² -
1777995199 12.78° C 88% 1016.1 hPa 0 mm - 31 W/m² -
1777994897 12.78° C 89% 1016.1 hPa 0 mm - 35 W/m² -
1777994594 12.78° C 89% 1016.1 hPa 0 mm - 31 W/m² -
1777994294 12.78° C 89% 1016 hPa 0 mm - 27 W/m² -
1777993991 12.78° C 90% 1015.9 hPa 0 mm - 33 W/m² -
1777993688 12.78° C 90% 1015.9 hPa 0 mm - 29 W/m² -
1777993385 12.78° C 90% 1016 hPa 0 mm - 24 W/m² -
1777993085 12.78° C 90% 1015.9 hPa 0 mm - 23 W/m² -
1777992784 12.22° C 91% 1015.8 hPa 0 mm - 18 W/m² -
1777992481 12.22° C 91% 1015.8 hPa 0 mm - 17 W/m² -
1777992180 12.22° C 90% 1015.7 hPa 0 mm - 17 W/m² -
1777991876 12.78° C 90% 1015.7 hPa 0 mm - 16 W/m² -
1777991573 12.78° C 90% 1015.6 hPa 0 mm - 13 W/m² -
1777991270 12.78° C 90% 1015.5 hPa 0 mm - 12 W/m² -
1777990967 12.78° C 90% 1015.6 hPa 0 mm - 12 W/m² -
1777990665 12.78° C 90% 1015.7 hPa 0 mm - 11 W/m² -
1777990362 12.78° C 90% 1015.5 hPa 0 mm - 11 W/m² -
1777990058 12.78° C 90% 1015.3 hPa 0 mm - 7 W/m² -
1777989755 12.78° C 90% 1015.1 hPa 0 mm - 9 W/m² -
1777989452 12.78° C 90% 1015.1 hPa 0 mm - 9 W/m² -

* Rain latest hour (hover to see other rain measurements)
** Current wind speed in m/s (hover to see current wind gust speed)